Time,TemperatureF,DewpointF,PressureIn,WindDirection,WindDirectionDegrees,WindSpeedMPH,WindSpeedGustMPH,Humidity,HourlyPrecipIn,Conditions,Clouds,dailyrainin,SoftwareType,DateUTC
2013-05-10 00:31:00,54.9,51.7,29.84,WSW,248,0.7,6.9,89,0.00,CLR,,0.03,WeatherDisplay:10.37,2013-05-10 04:31:00,
2013-05-10 00:36:00,54.9,51.7,29.84,WSW,248,0.7,6.9,89,0.00,CLR,,0.03,WeatherDisplay:10.37,2013-05-10 04:36:00,
2013-05-10 09:44:00,70.3,59.3,29.90,North,0,0.0,6.9,68,0.00,CLR,,0.03,WeatherDisplay:10.37,2013-05-10 13:44:00,
2013-05-10 09:49:00,70.3,58.0,29.90,North,0,0.0,6.9,65,0.00,CLR,,0.03,WeatherDisplay:10.37,2013-05-10 13:49:00,
2013-05-10 09:54:00,70.5,58.6,29.89,North,0,0.0,6.9,66,0.00,CLR,,0.03,WeatherDisplay:10.37,2013-05-10 13:54:00,
2013-05-10 09:59:00,70.7,58.8,29.89,North,0,0.0,6.9,66,0.00,CLR,,0.03,WeatherDisplay:10.37,2013-05-10 13:59:00,
2013-05-10 10:04:00,71.2,59.3,29.90,North,0,0.0,6.9,66,0.00,CLR,,0.03,WeatherDisplay:10.37,2013-05-10 14:04:00,
2013-05-10 10:09:00,71.6,59.2,29.89,North,0,0.0,6.9,65,0.00,CLR,,0.03,WeatherDisplay:10.37,2013-05-10 14:09:00,
2013-05-10 10:14:00,72.3,60.3,29.89,North,0,0.0,6.9,66,0.00,CLR,,0.03,WeatherDisplay:10.37,2013-05-10 14:14:00,
2013-05-10 10:19:00,72.9,60.0,29.90,North,0,0.0,6.9,64,0.00,CLR,,0.03,WeatherDisplay:10.37,2013-05-10 14:19:00,
2013-05-10 10:24:00,73.2,60.3,29.90,North,0,0.0,6.9,64,0.00,CLR,,0.03,WeatherDisplay:10.37,2013-05-10 14:24:00,
2013-05-10 10:29:00,73.4,59.6,29.90,North,0,0.0,6.9,62,0.00,CLR,,0.03,WeatherDisplay:10.37,2013-05-10 14:29:00,
2013-05-10 10:34:00,73.8,59.5,29.90,North,0,0.0,6.9,61,0.00,CLR,,0.03,WeatherDisplay:10.37,2013-05-10 14:34:00,
2013-05-10 10:39:00,74.3,60.0,29.90,North,0,0.0,6.9,61,0.00,CLR,,0.03,WeatherDisplay:10.37,2013-05-10 14:39:00,
2013-05-10 10:44:00,74.5,58.7,29.89,North,0,0.0,6.9,58,0.00,CLR,,0.03,WeatherDisplay:10.37,2013-05-10 14:44:00,
2013-05-10 10:49:00,75.0,60.2,29.89,North,0,0.0,6.9,60,0.00,CLR,,0.03,WeatherDisplay:10.37,2013-05-10 14:49:00,
2013-05-10 10:54:00,75.6,59.7,29.89,North,0,0.0,6.9,58,0.00,CLR,,0.03,WeatherDisplay:10.37,2013-05-10 14:54:00,
2013-05-10 10:59:00,75.7,60.4,29.89,North,0,0.0,6.9,59,0.00,CLR,,0.03,WeatherDisplay:10.37,2013-05-10 14:59:00,
2013-05-10 11:04:00,76.1,60.2,29.89,North,0,0.0,6.9,58,0.00,CLR,,0.03,WeatherDisplay:10.37,2013-05-10 15:04:00,
2013-05-10 11:09:00,76.5,62.0,29.89,North,0,0.0,6.9,61,0.00,CLR,,0.03,WeatherDisplay:10.37,2013-05-10 15:09:00,
2013-05-10 11:14:00,76.8,61.9,29.90,North,0,0.0,6.9,60,0.00,CLR,,0.03,WeatherDisplay:10.37,2013-05-10 15:14:00,
2013-05-10 11:19:00,77.2,62.2,29.90,North,0,0.0,6.9,60,0.00,CLR,,0.03,WeatherDisplay:10.37,2013-05-10 15:19:00,
2013-05-10 11:24:00,77.4,61.4,29.89,North,0,0.0,6.9,58,0.00,CLR,,0.03,WeatherDisplay:10.37,2013-05-10 15:24:00,
2013-05-10 11:29:00,77.4,60.9,29.89,SSE,158,4.3,6.9,57,0.00,CLR,,0.03,WeatherDisplay:10.37,2013-05-10 15:29:00,
2013-05-10 11:34:00,77.0,60.6,29.89,SSW,202,3.1,6.9,57,0.00,CLR,,0.03,WeatherDisplay:10.37,2013-05-10 15:34:00,
2013-05-10 11:39:00,77.0,61.6,29.89,SW,225,6.4,6.9,59,0.00,CLR,,0.03,WeatherDisplay:10.37,2013-05-10 15:39:00,
2013-05-10 11:44:00,76.6,61.7,29.89,SSW,202,8.3,8.3,60,0.00,CLR,,0.03,WeatherDisplay:10.37,2013-05-10 15:44:00,
2013-05-10 11:49:00,77.0,61.6,29.90,South,180,4.5,6.9,59,0.00,CLR,,0.03,WeatherDisplay:10.37,2013-05-10 15:49:00,
2013-05-10 11:54:00,77.0,61.1,29.89,SSW,202,2.6,6.9,58,0.00,CLR,,0.03,WeatherDisplay:10.37,2013-05-10 15:54:00,
2013-05-10 11:59:00,76.8,61.9,29.89,SSW,202,2.6,6.9,60,0.00,CLR,,0.03,WeatherDisplay:10.37,2013-05-10 15:59:00,
2013-05-10 12:04:00,77.0,61.6,29.89,SSW,202,2.6,6.9,59,0.00,CLR,,0.03,WeatherDisplay:10.37,2013-05-10 16:04:00,
2013-05-10 12:09:00,76.8,60.9,29.89,SSW,202,2.6,6.9,58,0.00,CLR,,0.03,WeatherDisplay:10.37,2013-05-10 16:09:00,
2013-05-10 12:14:00,76.1,60.7,29.89,SSW,202,2.6,6.9,59,0.00,CLR,,0.03,WeatherDisplay:10.37,2013-05-10 16:14:00,
2013-05-10 12:19:00,76.5,61.5,29.89,SSW,202,2.6,6.9,60,0.00,CLR,,0.03,WeatherDisplay:10.37,2013-05-10 16:19:00,
2013-05-10 12:24:00,77.0,60.6,29.89,SSW,202,2.6,6.9,57,0.00,CLR,,0.03,WeatherDisplay:10.37,2013-05-10 16:24:00,
2013-05-10 12:28:00,77.4,59.9,29.89,SSW,202,2.6,6.9,55,0.00,CLR,,0.03,WeatherDisplay:10.37,2013-05-10 16:28:00,
2013-05-10 12:29:00,77.4,59.9,29.89,SSW,202,2.6,6.9,55,0.00,CLR,,0.03,WeatherDisplay:10.37,2013-05-10 16:29:00,
2013-05-10 12:34:00,77.4,59.9,29.89,SSW,202,2.6,6.9,55,0.00,CLR,,0.03,WeatherDisplay:10.37,2013-05-10 16:34:00,
2013-05-10 13:29:00,77.4,59.9,29.89,SSW,202,2.6,6.9,55,0.00,CLR,,0.03,WeatherDisplay:10.37,2013-05-10 17:29:00,
2013-05-10 13:34:00,77.4,59.9,29.89,SSW,202,2.6,6.9,55,0.00,CLR,,0.03,WeatherDisplay:10.37,2013-05-10 17:34:00,
2013-05-10 17:39:00,77.4,60.9,29.89,North,0,0.0,6.9,57,0.00,CLR,,0.03,WeatherDisplay:10.37,2013-05-10 21:39:00,
2013-05-10 17:44:00,73.4,55.7,29.90,North,0,0.0,6.9,54,0.00,CLR,,0.03,WeatherDisplay:10.37,2013-05-10 21:44:00,
2013-05-10 17:49:00,72.3,54.7,29.90,North,0,0.0,6.9,54,0.00,CLR,,0.03,WeatherDisplay:10.37,2013-05-10 21:49:00,
2013-05-10 17:54:00,71.1,54.6,29.90,North,0,0.0,6.9,56,0.00,CLR,,0.03,WeatherDisplay:10.37,2013-05-10 21:54:00,
2013-05-10 17:58:00,70.2,53.7,29.90,SSW,202,1.1,6.9,56,0.00,CLR,,0.03,WeatherDisplay:10.37,2013-05-10 21:58:00,
2013-05-10 18:04:00,69.4,54.0,29.90,WSW,248,2.4,6.9,58,0.00,CLR,,0.03,WeatherDisplay:10.37,2013-05-10 22:04:00,
2013-05-10 18:08:00,69.1,54.1,29.90,SW,225,1.4,6.9,59,0.00,CLR,,0.03,WeatherDisplay:10.37,2013-05-10 22:08:00,
2013-05-10 18:13:00,68.7,54.7,29.90,SW,225,1.4,6.9,61,0.00,CLR,,0.03,WeatherDisplay:10.37,2013-05-10 22:13:00,
2013-05-10 18:18:00,68.4,54.4,29.89,SSW,202,0.5,6.9,61,0.00,CLR,,0.03,WeatherDisplay:10.37,2013-05-10 22:18:00,
2013-05-10 18:23:00,68.4,54.8,29.89,SSW,202,9.7,9.7,62,0.00,CLR,,0.03,WeatherDisplay:10.37,2013-05-10 22:23:00,
2013-05-10 18:28:00,68.0,54.5,29.89,South,180,1.6,6.9,62,0.00,CLR,,0.03,WeatherDisplay:10.37,2013-05-10 22:28:00,
2013-05-10 18:33:00,67.8,54.8,29.89,SSW,202,2.9,6.9,63,0.00,CLR,,0.03,WeatherDisplay:10.37,2013-05-10 22:33:00,
2013-05-10 18:38:00,67.6,55.0,29.89,South,180,1.1,6.9,64,0.00,CLR,,0.03,WeatherDisplay:10.37,2013-05-10 22:38:00,
2013-05-10 18:43:00,67.3,54.7,29.89,South,180,4.3,6.9,64,0.00,CLR,,0.03,WeatherDisplay:10.37,2013-05-10 22:43:00,
2013-05-10 18:48:00,66.9,54.3,29.89,SSW,202,5.9,6.9,64,0.00,CLR,,0.03,WeatherDisplay:10.37,2013-05-10 22:48:00,
2013-05-10 18:53:00,66.6,54.4,29.89,SSE,158,1.8,6.9,65,0.00,CLR,,0.03,WeatherDisplay:10.37,2013-05-10 22:53:00,
2013-05-10 18:58:00,65.8,53.7,29.90,SSW,202,0.5,6.9,65,0.00,CLR,,0.03,WeatherDisplay:10.37,2013-05-10 22:58:00,
2013-05-10 19:03:00,65.5,53.8,29.90,SSW,202,2.9,6.9,66,0.00,CLR,,0.03,WeatherDisplay:10.37,2013-05-10 23:03:00,
2013-05-10 19:08:00,65.1,53.5,29.90,SSW,202,5.2,6.9,66,0.00,CLR,,0.03,WeatherDisplay:10.37,2013-05-10 23:08:00,
2013-05-10 19:13:00,64.6,53.4,29.90,SSW,202,3.8,6.9,67,0.00,CLR,,0.03,WeatherDisplay:10.37,2013-05-10 23:13:00,
2013-05-10 19:18:00,64.0,53.3,29.90,SW,225,3.3,8.1,68,0.00,CLR,,0.03,WeatherDisplay:10.37,2013-05-10 23:18:00,
2013-05-10 19:23:00,63.7,53.3,29.90,SSW,202,2.6,6.9,69,0.00,CLR,,0.03,WeatherDisplay:10.37,2013-05-10 23:23:00,
2013-05-10 19:28:00,63.3,53.4,29.91,SW,225,2.9,6.9,70,0.00,CLR,,0.03,WeatherDisplay:10.37,2013-05-10 23:28:00,
2013-05-10 19:33:00,63.0,53.0,29.91,SSW,202,1.4,6.9,70,0.00,CLR,,0.03,WeatherDisplay:10.37,2013-05-10 23:33:00,
2013-05-10 19:38:00,62.6,52.7,29.91,South,180,1.8,6.9,70,0.00,CLR,,0.03,WeatherDisplay:10.37,2013-05-10 23:38:00,
2013-05-10 19:43:00,62.2,52.7,29.92,SSW,202,3.3,6.9,71,0.00,CLR,,0.03,WeatherDisplay:10.37,2013-05-10 23:43:00,
2013-05-10 19:48:00,61.9,52.0,29.92,SSW,202,4.0,6.9,70,0.00,CLR,,0.03,WeatherDisplay:10.37,2013-05-10 23:48:00,
2013-05-10 19:53:00,61.5,52.0,29.92,SSW,202,2.4,6.9,71,0.00,CLR,,0.03,WeatherDisplay:10.37,2013-05-10 23:53:00,
2013-05-10 19:58:00,61.2,52.1,29.92,SSW,202,1.4,6.9,72,0.00,CLR,,0.03,WeatherDisplay:10.37,2013-05-10 23:58:00,
2013-05-10 20:03:00,60.8,51.7,29.92,SSW,202,0.7,6.9,72,0.00,CLR,,0.03,WeatherDisplay:10.37,2013-05-11 00:03:00,
2013-05-10 20:08:00,60.6,51.5,29.92,SSW,202,0.5,6.9,72,0.00,CLR,,0.03,WeatherDisplay:10.37,2013-05-11 00:08:00,
2013-05-10 20:13:00,60.3,51.6,29.92,SW,225,2.0,6.9,73,0.00,CLR,,0.03,WeatherDisplay:10.37,2013-05-11 00:13:00,
2013-05-10 20:18:00,60.1,51.4,29.92,SSW,202,0.5,6.9,73,0.00,CLR,,0.03,WeatherDisplay:10.37,2013-05-11 00:18:00,
2013-05-10 20:23:00,59.7,51.4,29.92,South,180,1.1,6.9,74,0.00,CLR,,0.03,WeatherDisplay:10.37,2013-05-11 00:23:00,
2013-05-10 20:29:00,59.5,51.2,29.92,SSW,202,0.9,6.9,74,0.00,CLR,,0.03,WeatherDisplay:10.37,2013-05-11 00:29:00,
2013-05-10 20:34:00,59.4,51.4,29.92,SSW,202,2.0,6.9,75,0.00,CLR,,0.03,WeatherDisplay:10.37,2013-05-11 00:34:00,
2013-05-10 20:39:00,59.4,51.4,29.92,SSW,202,0.0,6.9,75,0.00,CLR,,0.03,WeatherDisplay:10.37,2013-05-11 00:39:00,
2013-05-10 20:44:00,59.2,51.6,29.92,SW,225,0.0,6.9,76,0.00,CLR,,0.03,WeatherDisplay:10.37,2013-05-11 00:44:00,
2013-05-10 20:49:00,59.0,51.4,29.92,WSW,248,0.2,6.9,76,0.00,CLR,,0.03,WeatherDisplay:10.37,2013-05-11 00:49:00,
2013-05-10 20:54:00,58.8,51.3,29.92,WSW,248,0.0,6.9,76,0.00,CLR,,0.03,WeatherDisplay:10.37,2013-05-11 00:54:00,
2013-05-10 20:59:00,58.6,51.4,29.92,WSW,248,0.0,6.9,77,0.00,CLR,,0.03,WeatherDisplay:10.37,2013-05-11 00:59:00,
2013-05-10 21:04:00,58.5,51.3,29.92,SW,225,0.0,6.9,77,0.00,CLR,,0.03,WeatherDisplay:10.37,2013-05-11 01:04:00,
2013-05-10 21:09:00,58.3,51.4,29.92,SW,225,1.8,6.9,78,0.00,CLR,,0.03,WeatherDisplay:10.37,2013-05-11 01:09:00,
2013-05-10 21:14:00,58.1,51.3,29.92,SW,225,0.7,6.9,78,0.00,CLR,,0.03,WeatherDisplay:10.37,2013-05-11 01:14:00,
2013-05-10 21:19:00,58.1,51.6,29.92,WSW,248,1.6,6.9,79,0.00,CLR,,0.03,WeatherDisplay:10.37,2013-05-11 01:19:00,
2013-05-10 21:24:00,57.9,51.4,29.92,WSW,248,0.0,6.9,79,0.00,CLR,,0.03,WeatherDisplay:10.37,2013-05-11 01:24:00,
2013-05-10 21:29:00,57.9,51.4,29.92,WSW,248,0.7,6.9,79,0.00,CLR,,0.03,WeatherDisplay:10.37,2013-05-11 01:29:00,
2013-05-10 21:34:00,57.7,51.3,29.92,SW,225,0.5,6.9,79,0.00,CLR,,0.03,WeatherDisplay:10.37,2013-05-11 01:34:00,
2013-05-10 21:39:00,57.7,51.6,29.92,SW,225,0.7,6.9,80,0.00,CLR,,0.03,WeatherDisplay:10.37,2013-05-11 01:39:00,
2013-05-10 21:44:00,57.7,51.9,29.92,WSW,248,1.8,6.9,81,0.00,CLR,,0.03,WeatherDisplay:10.37,2013-05-11 01:44:00,
2013-05-10 21:49:00,57.7,51.9,29.92,SSW,202,4.0,6.9,81,0.00,CLR,,0.03,WeatherDisplay:10.37,2013-05-11 01:49:00,
2013-05-10 21:54:00,57.7,51.9,29.92,SW,225,2.0,6.9,81,0.00,CLR,,0.03,WeatherDisplay:10.37,2013-05-11 01:54:00,
2013-05-10 21:59:00,57.7,51.6,29.92,SW,225,0.7,6.9,80,0.00,CLR,,0.03,WeatherDisplay:10.37,2013-05-11 01:59:00,
2013-05-10 22:04:00,57.6,52.1,29.93,SW,225,0.9,6.9,82,0.00,CLR,,0.03,WeatherDisplay:10.37,2013-05-11 02:04:00,
2013-05-10 22:09:00,57.6,51.8,29.93,SW,225,1.1,6.9,81,0.00,CLR,,0.03,WeatherDisplay:10.37,2013-05-11 02:09:00,
2013-05-10 22:14:00,57.4,51.6,29.92,SSW,202,0.9,6.9,81,0.00,CLR,,0.03,WeatherDisplay:10.37,2013-05-11 02:14:00,
2013-05-10 22:19:00,57.4,51.6,29.92,SSW,202,0.0,6.9,81,0.00,CLR,,0.03,WeatherDisplay:10.37,2013-05-11 02:19:00,
2013-05-10 22:24:00,57.4,51.6,29.92,SW,225,1.4,6.9,81,0.00,CLR,,0.03,WeatherDisplay:10.37,2013-05-11 02:24:00,
2013-05-10 22:29:00,57.2,51.4,29.92,SSW,202,1.8,6.9,81,0.00,CLR,,0.03,WeatherDisplay:10.37,2013-05-11 02:29:00,
2013-05-10 22:34:00,57.2,51.4,29.92,WSW,248,1.8,6.9,81,0.00,CLR,,0.03,WeatherDisplay:10.37,2013-05-11 02:34:00,
2013-05-10 22:39:00,57.2,51.8,29.92,SW,225,1.6,6.9,82,0.00,CLR,,0.03,WeatherDisplay:10.37,2013-05-11 02:39:00,
2013-05-10 22:44:00,57.2,51.8,29.92,SSW,202,1.1,6.9,82,0.00,CLR,,0.03,WeatherDisplay:10.37,2013-05-11 02:44:00,
2013-05-10 22:49:00,57.0,51.6,29.92,WSW,248,0.5,6.9,82,0.00,CLR,,0.03,WeatherDisplay:10.37,2013-05-11 02:49:00,
2013-05-10 22:54:00,57.0,51.6,29.92,SSW,202,1.8,6.9,82,0.00,CLR,,0.03,WeatherDisplay:10.37,2013-05-11 02:54:00,
2013-05-10 22:59:00,56.8,51.7,29.92,SW,225,1.1,6.9,83,0.00,CLR,,0.03,WeatherDisplay:10.37,2013-05-11 02:59:00,
2013-05-10 23:04:00,56.8,51.7,29.92,SW,225,1.1,6.9,83,0.00,CLR,,0.03,WeatherDisplay:10.37,2013-05-11 03:04:00,
2013-05-10 23:09:00,56.8,51.7,29.92,SW,225,1.1,6.9,83,0.00,CLR,,0.03,WeatherDisplay:10.37,2013-05-11 03:09:00,
2013-05-10 23:14:00,56.8,51.7,29.92,SSW,202,1.1,6.9,83,0.00,CLR,,0.03,WeatherDisplay:10.37,2013-05-11 03:14:00,
2013-05-10 23:19:00,56.7,51.6,29.91,SW,225,0.9,6.9,83,0.00,CLR,,0.03,WeatherDisplay:10.37,2013-05-11 03:19:00,
2013-05-10 23:24:00,56.7,51.6,29.91,SW,225,1.8,6.9,83,0.00,CLR,,0.03,WeatherDisplay:10.37,2013-05-11 03:24:00,
2013-05-10 23:29:00,56.5,51.4,29.90,SW,225,1.1,6.9,83,0.00,CLR,,0.03,WeatherDisplay:10.37,2013-05-11 03:29:00,
2013-05-10 23:34:00,56.5,51.4,29.90,SW,225,2.2,6.9,83,0.00,CLR,,0.03,WeatherDisplay:10.37,2013-05-11 03:34:00,
2013-05-10 23:39:00,56.5,51.1,29.91,SW,225,0.9,6.9,82,0.00,CLR,,0.03,WeatherDisplay:10.37,2013-05-11 03:39:00,
2013-05-10 23:44:00,56.3,51.2,29.91,SW,225,0.7,6.9,83,0.00,CLR,,0.03,WeatherDisplay:10.37,2013-05-11 03:44:00,
2013-05-10 23:49:00,56.3,51.2,29.91,SW,225,1.1,6.9,83,0.00,CLR,,0.03,WeatherDisplay:10.37,2013-05-11 03:49:00,
2013-05-10 23:54:00,56.1,51.0,29.90,SW,225,1.6,6.9,83,0.00,CLR,,0.03,WeatherDisplay:10.37,2013-05-11 03:54:00,
2013-05-10 23:59:00,55.9,50.9,29.90,South,180,0.7,6.9,83,0.00,CLR,,0.03,WeatherDisplay:10.37,2013-05-11 03:59:00,